星链-5531 (STARLINK-5531 )

导读

STARLINK-5531是美国SpaceX公司星链计划的低轨通信卫星,于北京时间2023年1月26日发射入轨,属于星链卫星星座组网的组成部分。作为第二代星链卫星,它运行在近地轨道,配备激光星间链路与相控阵天线技术,为全球用户提供高速低延迟宽带互联网接入,助力偏远地区网络覆盖,支撑包括移动通信、特殊场景通信等多元应用,是星链全球通信网络规模化部署中的一颗卫星。

Basic Information
目录编号:
55383
目录名称:
STARLINK-5531
国际标识:
2023-013BE
轨道中心:
EARTH
卫星名称:
星链-5531
卫星全名:
星链-5531 (STARLINK-5531 )
卫星状态:
在轨 (已飞行1325 天)
发射日期:
2023-01-26 UTC
国别 :
美国 (US)
星等 :
--
This satellite is enrolled in the Space Conjunction Data Service (SCDS) and the current flight risk assessment level is: No High Risk
Orbit Information
数据来源 国际轨道数据 AOE轨道数据
星历时间 2026-09-11T20:32:09+0800
1天前
查看轨道信息
2026-09-10T14:00:00+0800
2天前
查看轨道信息
半长轴 6861.183km 6861.2km
偏心率 0.0001937 0.0001817
轨道倾角 43.003° 43.001°
近地点辐角 267.129° 266.094°
升交点赤经 319.240° 326.428°
平近点角 92.934° 288.857°
近地点 481.716km 481.816km
远地点 484.376km 484.31km
周期 94.267分钟 94.267分钟
每日圈数 15.275811 15.275756
Detailed Information
固有亮度:
5
最大亮度:
2.5
卫星平台:
Starlink v1.5
覆盖范围:
全球
运营商:
太空探索技术公司
运营商所在国:
美国
制造商(研发单位):
太空探索技术公司
制造商所在国:
美国
使用方式:
暂无
Satellite Introduction
星链(Starlink)计划是由太空探索技术公司(SpaceX)提出的一个巨型低轨卫星互联网星座项目,计划在2019年至2024年间在太空搭建由约1.2万颗卫星组成的“星链”网络,其中1584颗将部署在地球上空550千米处的近地轨道,并从2020年开始工作。该卫星仍在工作。
2D Orbit Map
3D Orbit Map
Orbit Altitude Analysis Chart
Orbit Inclination Analysis Chart
Orbit Comprehensive Analysis Chart
View Comprehensive Chart
Miss Distance Evolution Trend with All Objects
Collision Probability Evolution Trend with All Objects